Regional Weather Roundup
Issued by NWS Northern Indiana

Home | Current Version | Previous Version | Text Only | Print | Product List | Glossary Off
Versions: 1 2 3 4 5 6 7 8 9 10 11 12 13 14 15 16 17 18 19 20 21 22 23 24 25 26 27 28 29 30 31 32 33 34 35 36 37 38 39 40 41 42 43 44 45 46 47 48 49 50

599
ASUS43 KIWX 270200
RWRIWX

KIWX WEATHER ROUNDUP
NATIONAL WEATHER SERVICE NORTHERN INDIANA
900 PM EST SUN FEB 26 2017

NOTE: "FAIR" INDICATES FEW OR NO CLOUDS BELOW 12,000 FEET WITH NO
SIGNIFICANT WEATHER AND/OR OBSTRUCTIONS TO VISIBILITY.

* THESE STATIONS ARE NOT UNDER NWS QUALITY CONTROL. THEY ALSO MAY NOT
  REPORT WEATHER SUCH AS PRECIPITATION OR FOG.

INZ001>027-270300-
NORTHERN INDIANA

CITY           SKY/WX    TMP DP  RH WIND       PRES   REMARKS
GARY*          MOCLDY    43  18  36 SW9       30.04R
KNOX*          CLEAR     37  -2  18 SW12G18   30.05R
SOUTH BEND     CLOUDY    40  20  44 SW16G24   30.04R
GOSHEN         CLEAR     37  20  50 S13       30.05R
ANGOLA*        CLEAR     37  21  52 SW13      30.04S
FORT WAYNE     CLEAR     32  23  69 SW9       30.09S WCI  24

$$
INZ028>050-270300-
CENTRAL INDIANA

CITY           SKY/WX    TMP DP  RH WIND       PRES   REMARKS
LAFAYETTE      CLOUDY    41  23  48 S6        30.09S
KOKOMO*        CLOUDY    40  24  53 SW13      30.11R
MUNCIE*        CLOUDY    43  17  35 SW6       30.11S
INDIANAPOLIS   CLOUDY    40  17  39 S8        30.12S

$$
MIZ043>046-050>051-056>058-064>065-071>073-077>080-270300-
SOUTHWEST LOWER MICHIGAN

CITY           SKY/WX    TMP DP  RH WIND       PRES   REMARKS
BATTLE CREEK   PTCLDY    38  24  57 SW14      30.00R
BENTON HARBOR  CLOUDY    43  22  43 S10       30.01R
COLDWATER*     MOCLDY    39  19  44 SW14G21   30.02R
HILLSDALE*     PTCLDY    36  21  55 SW16G22   30.02R
HOLLAND        CLOUDY    41  27  57 SW14      29.98R
GRAND RAPIDS   PTCLDY    38  23  55 SW12      29.96S
KALAMAZOO      CLOUDY    39  23  52 S9        30.00R
STURGIS*       PTCLDY    37  22  54 SW16G22   30.02S
THREE RIVERS*  FAIR      40  22  48 SW15G23   30.02S

$$
OHZ001>008-015>018-024>025-270300-
NORTHWEST OHIO

CITY           SKY/WX    TMP DP  RH WIND       PRES   REMARKS
DEFIANCE       CLEAR     35  20  54 S8        30.09R WCI  29
FINDLAY        CLEAR     35  22  58 S10       30.10R WCI  27
TOLEDO EXPRESS CLEAR     38  20  48 SW12      30.08R
TOLEDO METCALF CLEAR     39  21  48 SW13      30.09R
LIMA           CLEAR     37  21  52 S10       30.11R

$$
AND FOR LAKE MICHIGAN COASTAL AND OPEN LAKE BUOY OBSERVATIONS

STATION/POSITION TEMP    WIND        PRES    VSBY  WAVE
                 AIR SEA DIR/SP/G                  HT/PER
                 (F)     (DEG/KT/KT) (MB)    (MI)  (FT/S)
CALUMET HARBOR    44     200/ 14/ 17 1015.7R
MICHIGAN CITY     43     180/ 19/ 23   N/A
BURNS HARBOR      43     210/ 16/ 23 1016.9R
SAINT JOSEPH      42     200/ 11/ 14 1015.9

$$
&&




USA.gov is the U.S. government's official web portal to all federal, state and local government web resources and services.